Location: Bamobli
(6.6379°N, 10.9396°W)
Time: 17:34:37
(UTC+00:00)

Cosmos 2333 Rocket - Pass Details

Date: 07 June 2020
Orbit: 839 x 863 km, 70.8° (Epoch: 05 July)

Event Time Altitude Azimuth Distance (km) Brightness Sun altitude
Exits shadow 04:19:37 12° 329° (NNW) 2,275 4.4 -29.4°
Drops below altitude 10° 04:20:18 10° 334° (NNW) 2,446 4.6 -29.2°
Sets 04:23:22 0° 351° (N) 3,382 5.6 -28.6°
